sat.trackr.live / text

‹ back to catalog

HULIANWANG DIGUI-153

NORAD 67529 · 2026-013H

PAYLOAD ACTIVE UNKNOWN

§ Identity

Operator
Country
PRC
Launch date
2026-01-19
Launch site
WSC
Launch vehicle
Mass (kg)
RCS (m²)

External: N2YO · Heavens-Above · Gunter

§ Orbital elements

Epoch: 2026-05-25T04:05:57.798240Z

Period
108.33 min
Inclination
50.0044°
Eccentricity
0.0000913
Mean motion
13.29327912 rev/d
Perigee alt
1,148.6 km
Apogee alt
1,150.0 km
Semi-major
7,527.4 km
B*
8.4891e-5
RAAN
77.8799°
Arg perigee
27.6843°
Mean anomaly
332.4078°
Rev number
1,698

§ Raw data

HULIANWANG DIGUI-1531 67529U 26013H   26145.17080785 -.00000085  00000+0  84891-4 0  99922 67529  50.0044  77.8799 0000913  27.6843 332.4078 13.29327912 16984

JSON: /api/v1/satellites/67529 · /tle

For live sub-satellite position, see the globe view (requires WebGL).

§ Visibility from observer

Set your observer location to see the next 7 days of passes ≥ 10°. The values pass through the URL so the page stays shareable.

No JS? Fill the form by hand. The geolocation button needs JavaScript.